OBJECT AY, 62655

Orbit data source: Space-Track

You're viewing an Uncataloged Satellite

Recently launched and/or uncataloged satellites may have evolving metadata. Metadata may include but not limited to: Owner, Maufacturer, Bus, Motor, and Mission.

OBJECT AY, 62655 is a satellite in SSO that was launched on Tue, 14 Jan 2025 UTC via an FALCON 9 launch vehicle from the Air Force Western Test Range (AFWTR). Unknown objects in Earth's orbit typically refer to objects detected orbiting the Earth but have not yet been identified or cataloged. These objects could be anything from previously untracked satellites, spent rocket stages, debris from satellite collisions, or even natural meteoroids temporarily captured by Earth's gravity.

Loading next visibility...
Identifier
62655, 2025-009AY
Orbit
SSO
Country
Flag of TBDTBD
Related business
None
Manufacturer
Unknown
Mission
Operational Commercial Navigation
Bus & Motor
Unknown
Mass
Unknown
Launch date (UTC)
2025-01-14 (1 year ago)
Launch vehicle
FALCON 9
Launch site
Air Force Western Test Range (AFWTR)
Object type
Unknown
Shape & HBR
Box, 0.1 m
Radar Cross Section
0.480 m², Small (<0.1 m²)

Expand to show TLE details & history
Last TLE update: 14 hours ago

TLE from 14 hours ago
0 OBJECT AY
1 62655U 25009AY  26037.78618605  .00029882  00000-0  88743-3 0  9991
2 62655  97.4116 123.0095 0001643  43.1923 316.9449 15.34735925 59150
Epoch: 2026-02-06T18:52Z
TLE epoch observation values (Epoch: 2026-02-06T18:52:06.474Z)
Latitude
-0.00001°
Longitude
63.06346°
Altitude
463.994 km
Speed
7.635 km/s
True Right ascension
08h 12m 02s
True Declination
0° 00' 00"
Sunlit
Object was in full shadow at epoch
Visualization orbit readout
Latitude
Unknown
Longitude
Unknown
Altitude
Unknown
Speed
Unknown
Apparent Right ascension
Unknown
Apparent Declination
Unknown
Sunlit
N/A
Visualization observer readout
Local Sidereal Time
11:15:14
Azimuth
Unknown
Elevation
Unknown
Doppler factor
Unknown
Orbital elements
Apogee altitude
459.775 km
Perigee altitude
457.528 km
Semi-major axis
6,836.788 km
Eccentricity
0.00016
Inclination
97.4116°
RAAN
123.0095°
Arg. of periapsis
43.1923°
True anomaly
316.93204°
Mean anomaly
316.9449°
Eccentric anomaly
316.93847°
Mean motion
3.83941 °/min
Orbital period
93.76 mins
BSTAR
0.00088743
Loading maneuver chart data...
Computing Atmospheric mass density...
Loading historical data...
Loading historical data...
Loading historical data...
Loading historical data...
Loading historical data...
Loading historical data...
Loading historical data...

Documentation

Showing up to 5 results
|